Data supplied by UK-AIR on 29/3/2022
All Data GMT hour ending 
Status: R =Ratified P=Provisional,P*=As supplied
,,Scunthorpe Town,,,,,,,,,,,,,,,,,,,,,,,
Date,time,"PM<sub>10</sub> particulate matter (Hourly measured)",status,unit,"Nitric oxide",status,unit,"Nitrogen dioxide",status,unit,"Nitrogen oxides as nitrogen dioxide",status,unit,"Sulphur dioxide",status,unit
 
01-01-2021,01:00,69.566,R,ugm-3 (Ref.eq),9.85862,R,ugm-3,49.54496,R,ugm-3,64.66129,R,ugm-3,5.58494,R,ugm-3
01-01-2021,02:00,33.817,R,ugm-3 (Ref.eq),3.55630,R,ugm-3,44.54079,R,ugm-3,49.99371,R,ugm-3,4.06178,R,ugm-3
01-01-2021,03:00,25.121,R,ugm-3 (Ref.eq),1.78941,R,ugm-3,38.10858,R,ugm-3,40.85230,R,ugm-3,3.10980,R,ugm-3
01-01-2021,04:00,18.358,R,ugm-3 (Ref.eq),2.90357,R,ugm-3,25.81272,R,ugm-3,30.26479,R,ugm-3,2.03089,R,ugm-3
01-01-2021,05:00,18.358,R,ugm-3 (Ref.eq),0.60772,R,ugm-3,19.46850,R,ugm-3,20.40033,R,ugm-3,1.45970,R,ugm-3
01-01-2021,06:00,9.662,R,ugm-3 (Ref.eq),0.77654,R,ugm-3,15.95593,R,ugm-3,17.14661,R,ugm-3,0.88851,R,ugm-3
01-01-2021,07:00,8.696,R,ugm-3 (Ref.eq),1.95822,R,ugm-3,11.20020,R,ugm-3,14.20276,R,ugm-3,0.76158,R,ugm-3
01-01-2021,08:00,7.730,R,ugm-3 (Ref.eq),0.57396,R,ugm-3,10.06898,R,ugm-3,10.94904,R,ugm-3,0.57119,R,ugm-3
01-01-2021,09:00,4.831,R,ugm-3 (Ref.eq),0.50644,R,ugm-3,10.37910,R,ugm-3,11.15562,R,ugm-3,0.25386,R,ugm-3
01-01-2021,10:00,4.831,R,ugm-3 (Ref.eq),2.12703,R,ugm-3,8.35904,R,ugm-3,11.62044,R,ugm-3,0.63465,R,ugm-3
01-01-2021,11:00,4.831,R,ugm-3 (Ref.eq),0.60772,R,ugm-3,6.40196,R,ugm-3,7.33379,R,ugm-3,0.25386,R,ugm-3
01-01-2021,12:00,4.831,R,ugm-3 (Ref.eq),1.72188,R,ugm-3,8.41215,R,ugm-3,11.05233,R,ugm-3,0.63465,R,ugm-3
01-01-2021,13:00,4.831,R,ugm-3 (Ref.eq),1.68812,R,ugm-3,7.84416,R,ugm-3,10.43257,R,ugm-3,0.69812,R,ugm-3
01-01-2021,14:00,3.865,R,ugm-3 (Ref.eq),1.48554,R,ugm-3,8.10312,R,ugm-3,10.38093,R,ugm-3,0.69812,R,ugm-3
01-01-2021,15:00,3.865,R,ugm-3 (Ref.eq),1.95822,R,ugm-3,11.61337,R,ugm-3,14.61593,R,ugm-3,0.63465,R,ugm-3
01-01-2021,16:00,5.797,R,ugm-3 (Ref.eq),0.57396,R,ugm-3,10.01733,R,ugm-3,10.89739,R,ugm-3,0.42310,R,ugm-3
01-01-2021,17:00,11.594,R,ugm-3 (Ref.eq),0.50644,R,ugm-3,9.96593,R,ugm-3,10.74245,R,ugm-3,0.31733,R,ugm-3
01-01-2021,18:00,12.561,R,ugm-3 (Ref.eq),1.01287,R,ugm-3,8.20812,R,ugm-3,9.76117,R,ugm-3,0.31733,R,ugm-3
01-01-2021,19:00,10.628,R,ugm-3 (Ref.eq),1.58683,R,ugm-3,8.67087,R,ugm-3,11.10398,R,ugm-3,0.31733,R,ugm-3
01-01-2021,20:00,6.763,R,ugm-3 (Ref.eq),0.84406,R,ugm-3,8.41532,R,ugm-3,9.70952,R,ugm-3,0.25386,R,ugm-3
01-01-2021,21:00,5.797,R,ugm-3 (Ref.eq),0.43891,R,ugm-3,8.05526,R,ugm-3,8.72824,R,ugm-3,0.25386,R,ugm-3
01-01-2021,22:00,4.831,R,ugm-3 (Ref.eq),0.50644,R,ugm-3,8.57148,R,ugm-3,9.34800,R,ugm-3,0.19040,R,ugm-3
01-01-2021,23:00,3.865,R,ugm-3 (Ref.eq),1.78941,R,ugm-3,10.73599,R,ugm-3,13.47971,R,ugm-3,0.12693,R,ugm-3
01-01-2021,24:00,7.730,R,ugm-3 (Ref.eq),0.37139,R,ugm-3,10.22465,R,ugm-3,10.79410,R,ugm-3,0.06347,R,ugm-3
02-01-2021,01:00,6.763,R,ugm-3 (Ref.eq),0.13507,R,ugm-3,11.43276,R,ugm-3,11.63986,R,ugm-3,1.01494,R,ugm-3
02-01-2021,02:00,3.865,R,ugm-3 (Ref.eq),0.22511,R,ugm-3,6.06019,R,ugm-3,6.40536,R,ugm-3,0.16916,R,ugm-3
02-01-2021,03:00,3.865,R,ugm-3 (Ref.eq),0.10130,R,ugm-3,7.33482,R,ugm-3,7.49014,R,ugm-3,1.14181,R,ugm-3
02-01-2021,04:00,5.797,R,ugm-3 (Ref.eq),0.43897,R,ugm-3,8.98662,R,ugm-3,9.65970,R,ugm-3,1.14181,R,ugm-3
02-01-2021,05:00,4.831,R,ugm-3 (Ref.eq),0.30390,R,ugm-3,8.83213,R,ugm-3,9.29811,R,ugm-3,0.95151,R,ugm-3
02-01-2021,06:00,2.899,R,ugm-3 (Ref.eq),2.16109,R,ugm-3,15.69584,R,ugm-3,19.00947,R,ugm-3,1.07838,R,ugm-3
02-01-2021,07:00,2.899,R,ugm-3 (Ref.eq),0.33767,R,ugm-3,12.03469,R,ugm-3,12.55245,R,ugm-3,1.01494,R,ugm-3
02-01-2021,08:00,3.865,R,ugm-3 (Ref.eq),6.92225,R,ugm-3,31.02090,R,ugm-3,41.63487,R,ugm-3,1.14181,R,ugm-3
02-01-2021,09:00,2.899,R,ugm-3 (Ref.eq),4.35596,R,ugm-3,30.20347,R,ugm-3,36.88250,R,ugm-3,1.33211,R,ugm-3
02-01-2021,10:00,8.696,R,ugm-3 (Ref.eq),6.71965,R,ugm-3,29.78187,R,ugm-3,40.08519,R,ugm-3,1.71271,R,ugm-3
02-01-2021,11:00,7.730,R,ugm-3 (Ref.eq),4.76116,R,ugm-3,18.37277,R,ugm-3,25.67312,R,ugm-3,2.34705,R,ugm-3
02-01-2021,12:00,6.763,R,ugm-3 (Ref.eq),2.76890,R,ugm-3,13.73076,R,ugm-3,17.97635,R,ugm-3,1.77615,R,ugm-3
02-01-2021,13:00,3.865,R,ugm-3 (Ref.eq),3.68061,R,ugm-3,17.80837,R,ugm-3,23.45190,R,ugm-3,1.07838,R,ugm-3
02-01-2021,14:00,4.831,R,ugm-3 (Ref.eq),2.36370,R,ugm-3,17.60640,R,ugm-3,21.23069,R,ugm-3,1.01494,R,ugm-3
02-01-2021,15:00,5.797,R,ugm-3 (Ref.eq),2.46500,R,ugm-3,17.50273,R,ugm-3,21.28234,R,ugm-3,1.14181,R,ugm-3
02-01-2021,16:00,3.865,R,ugm-3 (Ref.eq),1.48575,R,ugm-3,18.33269,R,ugm-3,20.61081,R,ugm-3,1.01494,R,ugm-3
02-01-2021,17:00,8.696,R,ugm-3 (Ref.eq),1.55329,R,ugm-3,19.88214,R,ugm-3,22.26381,R,ugm-3,1.01494,R,ugm-3
02-01-2021,18:00,6.763,R,ugm-3 (Ref.eq),1.24938,R,ugm-3,20.65805,R,ugm-3,22.57374,R,ugm-3,0.76121,R,ugm-3
02-01-2021,19:00,5.797,R,ugm-3 (Ref.eq),1.21562,R,ugm-3,21.53633,R,ugm-3,23.40024,R,ugm-3,0.63434,R,ugm-3
02-01-2021,20:00,9.662,R,ugm-3 (Ref.eq),0.57404,R,ugm-3,13.58354,R,ugm-3,14.46373,R,ugm-3,0.59205,R,ugm-3
02-01-2021,21:00,6.763,R,ugm-3 (Ref.eq),0.67534,R,ugm-3,12.18847,R,ugm-3,13.22398,R,ugm-3,0.57090,R,ugm-3
02-01-2021,22:00,8.696,R,ugm-3 (Ref.eq),0.37144,R,ugm-3,9.76170,R,ugm-3,10.33123,R,ugm-3,0.50747,R,ugm-3
02-01-2021,23:00,5.797,R,ugm-3 (Ref.eq),0.20260,R,ugm-3,8.05765,R,ugm-3,8.36830,R,ugm-3,0.50747,R,ugm-3
02-01-2021,24:00,2.899,R,ugm-3 (Ref.eq),0.20260,R,ugm-3,5.11325,R,ugm-3,5.42390,R,ugm-3,0.50747,R,ugm-3
03-01-2021,01:00,0.966,R,ugm-3 (Ref.eq),0.49532,R,ugm-3,4.88933,R,ugm-3,5.64881,R,ugm-3,0.76083,R,ugm-3
03-01-2021,02:00,2.899,R,ugm-3 (Ref.eq),0.22515,R,ugm-3,4.06361,R,ugm-3,4.40883,R,ugm-3,-0.16907,R,ugm-3
03-01-2021,03:00,2.899,R,ugm-3 (Ref.eq),0.06754,R,ugm-3,4.33971,R,ugm-3,4.44327,R,ugm-3,0.44382,R,ugm-3
03-01-2021,04:00,2.899,R,ugm-3 (Ref.eq),0.00000,R,ugm-3,3.66828,R,ugm-3,3.66828,R,ugm-3,0.57062,R,ugm-3
03-01-2021,05:00,2.899,R,ugm-3 (Ref.eq),0.13509,R,ugm-3,3.04782,R,ugm-3,3.25496,R,ugm-3,0.50722,R,ugm-3
03-01-2021,06:00,3.865,R,ugm-3 (Ref.eq),0.37149,R,ugm-3,5.11364,R,ugm-3,5.68325,R,ugm-3,0.63402,R,ugm-3
03-01-2021,07:00,1.932,R,ugm-3 (Ref.eq),0.30395,R,ugm-3,6.35386,R,ugm-3,6.81990,R,ugm-3,0.50722,R,ugm-3
03-01-2021,08:00,0.000,R,ugm-3 (Ref.eq),0.50658,R,ugm-3,7.59314,R,ugm-3,8.36988,R,ugm-3,0.50722,R,ugm-3
03-01-2021,09:00,0.000,R,ugm-3 (Ref.eq),0.74298,R,ugm-3,11.15727,R,ugm-3,12.29649,R,ugm-3,0.50722,R,ugm-3
03-01-2021,10:00,0.000,R,ugm-3 (Ref.eq),1.28333,R,ugm-3,11.62040,R,ugm-3,13.58814,R,ugm-3,0.50722,R,ugm-3
03-01-2021,11:00,-0.966,R,ugm-3 (Ref.eq),2.12762,R,ugm-3,10.79082,R,ugm-3,14.05313,R,ugm-3,0.76083,R,ugm-3
03-01-2021,12:00,2.899,R,ugm-3 (Ref.eq),2.09385,R,ugm-3,11.35927,R,ugm-3,14.56979,R,ugm-3,0.69743,R,ugm-3
03-01-2021,13:00,6.763,R,ugm-3 (Ref.eq),1.24956,R,ugm-3,10.27720,R,ugm-3,12.19316,R,ugm-3,0.82423,R,ugm-3
03-01-2021,14:00,7.730,R,ugm-3 (Ref.eq),0.67544,R,ugm-3,6.97257,R,ugm-3,8.00822,R,ugm-3,0.57062,R,ugm-3
03-01-2021,15:00,5.797,R,ugm-3 (Ref.eq),0.57412,R,ugm-3,7.38624,R,ugm-3,8.26655,R,ugm-3,0.57062,R,ugm-3
03-01-2021,16:00,5.797,R,ugm-3 (Ref.eq),0.43903,R,ugm-3,5.52674,R,ugm-3,6.19991,R,ugm-3,0.50722,R,ugm-3
03-01-2021,17:00,4.831,R,ugm-3 (Ref.eq),0.27017,R,ugm-3,8.26562,R,ugm-3,8.67988,R,ugm-3,0.63402,R,ugm-3
03-01-2021,18:00,10.628,R,ugm-3 (Ref.eq),0.23640,R,ugm-3,7.59408,R,ugm-3,7.95656,R,ugm-3,0.57062,R,ugm-3
03-01-2021,19:00,10.628,R,ugm-3 (Ref.eq),0.47281,R,ugm-3,15.03315,R,ugm-3,15.75811,R,ugm-3,0.69743,R,ugm-3
03-01-2021,20:00,11.594,R,ugm-3 (Ref.eq),2.83683,R,ugm-3,16.10996,R,ugm-3,20.45971,R,ugm-3,0.67629,R,ugm-3
03-01-2021,21:00,11.594,R,ugm-3 (Ref.eq),4.35656,R,ugm-3,16.93136,R,ugm-3,23.61133,R,ugm-3,0.69743,R,ugm-3
03-01-2021,22:00,7.730,R,ugm-3 (Ref.eq),2.80306,R,ugm-3,23.39498,R,ugm-3,27.69294,R,ugm-3,0.63402,R,ugm-3
03-01-2021,23:00,6.763,R,ugm-3 (Ref.eq),1.38464,R,ugm-3,20.04159,R,ugm-3,22.16469,R,ugm-3,0.69743,R,ugm-3
03-01-2021,24:00,3.865,R,ugm-3 (Ref.eq),1.68859,R,ugm-3,27.01545,R,ugm-3,29.60458,R,ugm-3,0.63402,R,ugm-3
04-01-2021,01:00,2.899,R,ugm-3 (Ref.eq),0.45035,R,ugm-3,13.36526,R,ugm-3,14.05579,R,ugm-3,0.59146,R,ugm-3
04-01-2021,02:00,2.899,R,ugm-3 (Ref.eq),0.31525,R,ugm-3,6.40672,R,ugm-3,6.89009,R,ugm-3,0.00000,R,ugm-3
04-01-2021,03:00,4.831,R,ugm-3 (Ref.eq),0.06755,R,ugm-3,4.13383,R,ugm-3,4.23741,R,ugm-3,0.50697,R,ugm-3
04-01-2021,04:00,6.763,R,ugm-3 (Ref.eq),0.16888,R,ugm-3,6.97565,R,ugm-3,7.23460,R,ugm-3,0.88720,R,ugm-3
04-01-2021,05:00,6.763,R,ugm-3 (Ref.eq),0.60798,R,ugm-3,10.79817,R,ugm-3,11.73038,R,ugm-3,0.76045,R,ugm-3
04-01-2021,06:00,2.899,R,ugm-3 (Ref.eq),0.97952,R,ugm-3,8.47150,R,ugm-3,9.97341,R,ugm-3,0.69708,R,ugm-3
04-01-2021,07:00,5.797,R,ugm-3 (Ref.eq),0.64175,R,ugm-3,10.28129,R,ugm-3,11.26530,R,ugm-3,0.69708,R,ugm-3
04-01-2021,08:00,12.561,R,ugm-3 (Ref.eq),0.97952,R,ugm-3,15.29270,R,ugm-3,16.79460,R,ugm-3,0.69708,R,ugm-3
04-01-2021,09:00,11.594,R,ugm-3 (Ref.eq),1.68883,R,ugm-3,14.77354,R,ugm-3,17.36304,R,ugm-3,0.84495,R,ugm-3
04-01-2021,10:00,6.763,R,ugm-3 (Ref.eq),1.28351,R,ugm-3,10.95091,R,ugm-3,12.91893,R,ugm-3,0.82382,R,ugm-3
04-01-2021,11:00,4.831,R,ugm-3 (Ref.eq),1.14840,R,ugm-3,9.91785,R,ugm-3,11.67871,R,ugm-3,0.63371,R,ugm-3
04-01-2021,12:00,7.730,R,ugm-3 (Ref.eq),1.38484,R,ugm-3,9.71035,R,ugm-3,11.83374,R,ugm-3,0.69708,R,ugm-3
04-01-2021,13:00,8.696,R,ugm-3 (Ref.eq),1.41861,R,ugm-3,9.71024,R,ugm-3,11.88541,R,ugm-3,0.76045,R,ugm-3
04-01-2021,14:00,5.797,R,ugm-3 (Ref.eq),1.11463,R,ugm-3,7.74759,R,ugm-3,9.45665,R,ugm-3,0.69708,R,ugm-3
04-01-2021,15:00,11.594,R,ugm-3 (Ref.eq),1.18218,R,ugm-3,9.55601,R,ugm-3,11.36866,R,ugm-3,0.63371,R,ugm-3
04-01-2021,16:00,11.594,R,ugm-3 (Ref.eq),1.24973,R,ugm-3,14.20659,R,ugm-3,16.12282,R,ugm-3,0.57034,R,ugm-3
04-01-2021,17:00,9.662,R,ugm-3 (Ref.eq),0.50665,R,ugm-3,9.35159,R,ugm-3,10.12844,R,ugm-3,0.38023,R,ugm-3
04-01-2021,18:00,5.797,R,ugm-3 (Ref.eq),0.67553,R,ugm-3,8.93761,R,ugm-3,9.97341,R,ugm-3,0.57034,R,ugm-3
04-01-2021,19:00,5.797,R,ugm-3 (Ref.eq),0.84441,R,ugm-3,7.07672,R,ugm-3,8.37146,R,ugm-3,0.57034,R,ugm-3
04-01-2021,20:00,3.865,R,ugm-3 (Ref.eq),0.54042,R,ugm-3,9.81656,R,ugm-3,10.64520,R,ugm-3,0.57034,R,ugm-3
04-01-2021,21:00,5.797,R,ugm-3 (Ref.eq),0.40532,R,ugm-3,10.07539,R,ugm-3,10.69687,R,ugm-3,0.76045,R,ugm-3
04-01-2021,22:00,6.763,R,ugm-3 (Ref.eq),0.23644,R,ugm-3,4.85672,R,ugm-3,5.21925,R,ugm-3,0.63371,R,ugm-3
04-01-2021,23:00,7.730,R,ugm-3 (Ref.eq),0.06755,R,ugm-3,3.30702,R,ugm-3,3.41060,R,ugm-3,0.50697,R,ugm-3
04-01-2021,24:00,6.763,R,ugm-3 (Ref.eq),0.16888,R,ugm-3,2.16981,R,ugm-3,2.42876,R,ugm-3,0.63371,R,ugm-3
05-01-2021,01:00,5.797,R,ugm-3 (Ref.eq),1.89175,R,ugm-3,6.67840,R,ugm-3,9.57904,R,ugm-3,0.76008,R,ugm-3
05-01-2021,02:00,3.865,R,ugm-3 (Ref.eq),0.27025,R,ugm-3,4.61634,R,ugm-3,5.03072,R,ugm-3,-0.16891,R,ugm-3
05-01-2021,03:00,2.899,R,ugm-3 (Ref.eq),0.13513,R,ugm-3,3.61754,R,ugm-3,3.82473,R,ugm-3,0.50672,R,ugm-3
05-01-2021,04:00,3.865,R,ugm-3 (Ref.eq),0.81075,R,ugm-3,6.09621,R,ugm-3,7.33934,R,ugm-3,0.63340,R,ugm-3
05-01-2021,05:00,2.899,R,ugm-3 (Ref.eq),1.38503,R,ugm-3,16.89657,R,ugm-3,19.02025,R,ugm-3,0.50672,R,ugm-3
05-01-2021,06:00,5.797,R,ugm-3 (Ref.eq),0.94587,R,ugm-3,12.55644,R,ugm-3,14.00676,R,ugm-3,0.63340,R,ugm-3
05-01-2021,07:00,5.797,R,ugm-3 (Ref.eq),0.47294,R,ugm-3,5.11530,R,ugm-3,5.84046,R,ugm-3,0.63340,R,ugm-3
05-01-2021,08:00,5.797,R,ugm-3 (Ref.eq),5.97927,R,ugm-3,26.80499,R,ugm-3,35.97309,R,ugm-3,0.82341,R,ugm-3
05-01-2021,09:00,6.763,R,ugm-3 (Ref.eq),7.60077,R,ugm-3,27.83335,R,ugm-3,39.48770,R,ugm-3,0.92898,R,ugm-3
05-01-2021,10:00,5.797,R,ugm-3 (Ref.eq),4.15509,R,ugm-3,21.95259,R,ugm-3,28.32364,R,ugm-3,0.88675,R,ugm-3
05-01-2021,11:00,2.899,R,ugm-3 (Ref.eq),3.31056,R,ugm-3,14.25425,R,ugm-3,19.33037,R,ugm-3,0.69674,R,ugm-3
05-01-2021,12:00,4.831,R,ugm-3 (Ref.eq),10.16814,R,ugm-3,24.00013,R,ugm-3,39.59107,R,ugm-3,1.07677,R,ugm-3
05-01-2021,13:00,10.628,R,ugm-3 (Ref.eq),5.64146,R,ugm-3,17.50273,R,ugm-3,26.15285,R,ugm-3,1.14011,R,ugm-3
05-01-2021,14:00,7.730,R,ugm-3 (Ref.eq),1.92553,R,ugm-3,9.76219,R,ugm-3,12.71463,R,ugm-3,0.95009,R,ugm-3
05-01-2021,15:00,5.797,R,ugm-3 (Ref.eq),2.87140,R,ugm-3,9.75906,R,ugm-3,14.16182,R,ugm-3,1.01343,R,ugm-3
05-01-2021,16:00,9.662,R,ugm-3 (Ref.eq),3.37812,R,ugm-3,16.26976,R,ugm-3,21.44947,R,ugm-3,0.76008,R,ugm-3
05-01-2021,17:00,5.797,R,ugm-3 (Ref.eq),2.77006,R,ugm-3,18.49424,R,ugm-3,22.74161,R,ugm-3,0.88675,R,ugm-3
05-01-2021,18:00,3.865,R,ugm-3 (Ref.eq),4.22265,R,ugm-3,23.29619,R,ugm-3,29.77083,R,ugm-3,1.20345,R,ugm-3
05-01-2021,19:00,2.899,R,ugm-3 (Ref.eq),7.16162,R,ugm-3,33.46851,R,ugm-3,44.44951,R,ugm-3,1.33013,R,ugm-3
05-01-2021,20:00,0.966,R,ugm-3 (Ref.eq),1.48637,R,ugm-3,14.46702,R,ugm-3,16.74609,R,ugm-3,1.01343,R,ugm-3
05-01-2021,21:00,3.865,R,ugm-3 (Ref.eq),5.06718,R,ugm-3,19.41699,R,ugm-3,27.18656,R,ugm-3,1.07677,R,ugm-3
05-01-2021,22:00,5.797,R,ugm-3 (Ref.eq),2.22956,R,ugm-3,11.46681,R,ugm-3,14.88542,R,ugm-3,1.07677,R,ugm-3
05-01-2021,23:00,4.831,R,ugm-3 (Ref.eq),2.09444,R,ugm-3,11.46725,R,ugm-3,14.67867,R,ugm-3,0.95009,R,ugm-3
05-01-2021,24:00,2.899,R,ugm-3 (Ref.eq),1.65528,R,ugm-3,11.83050,R,ugm-3,14.36856,R,ugm-3,0.88675,R,ugm-3
06-01-2021,01:00,4.831,R,ugm-3 (Ref.eq),2.56773,R,ugm-3,17.84380,R,ugm-3,21.78093,R,ugm-3,0.92852,R,ugm-3
06-01-2021,02:00,5.797,R,ugm-3 (Ref.eq),0.81086,R,ugm-3,12.05960,R,ugm-3,13.30291,R,ugm-3,0.25323,R,ugm-3
06-01-2021,03:00,4.831,R,ugm-3 (Ref.eq),1.35144,R,ugm-3,9.76604,R,ugm-3,11.83821,R,ugm-3,0.82301,R,ugm-3
06-01-2021,04:00,7.730,R,ugm-3 (Ref.eq),2.73666,R,ugm-3,11.00225,R,ugm-3,15.19840,R,ugm-3,1.07624,R,ugm-3
06-01-2021,05:00,5.797,R,ugm-3 (Ref.eq),5.47332,R,ugm-3,15.12903,R,ugm-3,23.52133,R,ugm-3,1.20286,R,ugm-3
06-01-2021,06:00,4.831,R,ugm-3 (Ref.eq),2.22987,R,ugm-3,21.75649,R,ugm-3,25.17558,R,ugm-3,1.20286,R,ugm-3
06-01-2021,07:00,7.730,R,ugm-3 (Ref.eq),7.73697,R,ugm-3,24.53025,R,ugm-3,36.39345,R,ugm-3,1.39278,R,ugm-3
06-01-2021,08:00,8.696,R,ugm-3 (Ref.eq),6.92611,R,ugm-3,28.51340,R,ugm-3,39.13330,R,ugm-3,1.32947,R,ugm-3
06-01-2021,09:00,11.594,R,ugm-3 (Ref.eq),49.39501,R,ugm-3,46.52128,R,ugm-3,122.25924,R,ugm-3,3.20761,R,ugm-3
06-01-2021,10:00,13.527,R,ugm-3 (Ref.eq),31.75876,R,ugm-3,38.20361,R,ugm-3,86.89970,R,ugm-3,3.03879,R,ugm-3
06-01-2021,11:00,16.425,R,ugm-3 (Ref.eq),26.65709,R,ugm-3,36.51414,R,ugm-3,77.38777,R,ugm-3,3.48195,R,ugm-3
06-01-2021,12:00,,,,,,,,,,,,,3.12320,R,ugm-3
06-01-2021,13:00,,,,7.47795,R,ugm-3,21.41214,R,ugm-3,32.87817,R,ugm-3,1.77263,R,ugm-3
06-01-2021,14:00,10.628,R,ugm-3 (Ref.eq),4.22324,R,ugm-3,18.23478,R,ugm-3,24.71032,R,ugm-3,1.07624,R,ugm-3
06-01-2021,15:00,9.662,R,ugm-3 (Ref.eq),3.51374,R,ugm-3,15.44553,R,ugm-3,20.83318,R,ugm-3,0.88631,R,ugm-3
06-01-2021,16:00,6.763,R,ugm-3 (Ref.eq),3.71645,R,ugm-3,18.54659,R,ugm-3,24.24507,R,ugm-3,0.82301,R,ugm-3
06-01-2021,17:00,5.797,R,ugm-3 (Ref.eq),3.81781,R,ugm-3,31.57346,R,ugm-3,37.42735,R,ugm-3,0.56977,R,ugm-3
06-01-2021,18:00,3.865,R,ugm-3 (Ref.eq),3.34481,R,ugm-3,22.26985,R,ugm-3,27.39848,R,ugm-3,0.37985,R,ugm-3
06-01-2021,19:00,7.730,R,ugm-3 (Ref.eq),3.44616,R,ugm-3,30.85093,R,ugm-3,36.13497,R,ugm-3,0.37985,R,ugm-3
06-01-2021,20:00,7.730,R,ugm-3 (Ref.eq),4.29081,R,ugm-3,23.61087,R,ugm-3,30.19002,R,ugm-3,0.69639,R,ugm-3
06-01-2021,21:00,7.730,R,ugm-3 (Ref.eq),1.11494,R,ugm-3,22.69061,R,ugm-3,24.40015,R,ugm-3,0.44316,R,ugm-3
06-01-2021,22:00,11.594,R,ugm-3 (Ref.eq),6.55447,R,ugm-3,30.47902,R,ugm-3,40.52907,R,ugm-3,0.88631,R,ugm-3
06-01-2021,23:00,22.223,R,ugm-3 (Ref.eq),3.00695,R,ugm-3,32.55829,R,ugm-3,37.16888,R,ugm-3,0.94962,R,ugm-3
06-01-2021,24:00,16.425,R,ugm-3 (Ref.eq),8.78434,R,ugm-3,25.61247,R,ugm-3,39.08160,R,ugm-3,1.01293,R,ugm-3
07-01-2021,01:00,12.561,R,ugm-3 (Ref.eq),0.63009,R,ugm-3,17.28134,R,ugm-3,18.24747,R,ugm-3,0.08435,R,ugm-3
07-01-2021,02:00,13.527,R,ugm-3 (Ref.eq),4.14061,R,ugm-3,25.18829,R,ugm-3,31.53714,R,ugm-3,0.25305,R,ugm-3
07-01-2021,03:00,15.459,R,ugm-3 (Ref.eq),6.48096,R,ugm-3,29.67345,R,ugm-3,39.61078,R,ugm-3,0.50610,R,ugm-3
07-01-2021,04:00,14.493,R,ugm-3 (Ref.eq),10.73409,R,ugm-3,29.86577,R,ugm-3,46.32448,R,ugm-3,1.13873,R,ugm-3
07-01-2021,05:00,17.392,R,ugm-3 (Ref.eq),14.68343,R,ugm-3,31.45348,R,ugm-3,53.96776,R,ugm-3,1.01221,R,ugm-3
07-01-2021,06:00,13.527,R,ugm-3 (Ref.eq),23.02091,R,ugm-3,36.22841,R,ugm-3,71.52664,R,ugm-3,1.26526,R,ugm-3
07-01-2021,07:00,8.696,R,ugm-3 (Ref.eq),26.97025,R,ugm-3,40.29502,R,ugm-3,81.64883,R,ugm-3,1.77136,R,ugm-3
07-01-2021,08:00,16.425,R,ugm-3 (Ref.eq),19.27411,R,ugm-3,41.25041,R,ugm-3,70.80363,R,ugm-3,1.20200,R,ugm-3
07-01-2021,09:00,13.527,R,ugm-3 (Ref.eq),33.99129,R,ugm-3,47.44997,R,ugm-3,99.56922,R,ugm-3,2.02442,R,ugm-3
07-01-2021,10:00,12.561,R,ugm-3 (Ref.eq),27.71286,R,ugm-3,42.15171,R,ugm-3,84.64416,R,ugm-3,2.15094,R,ugm-3
07-01-2021,11:00,16.425,R,ugm-3 (Ref.eq),30.98709,R,ugm-3,40.64306,R,ugm-3,88.15594,R,ugm-3,3.03662,R,ugm-3
07-01-2021,12:00,16.425,R,ugm-3 (Ref.eq),30.95334,R,ugm-3,37.64784,R,ugm-3,85.10896,R,ugm-3,3.54273,R,ugm-3
07-01-2021,13:00,13.527,R,ugm-3 (Ref.eq),27.61159,R,ugm-3,35.33507,R,ugm-3,77.67225,R,ugm-3,3.16315,R,ugm-3
07-01-2021,14:00,22.223,R,ugm-3 (Ref.eq),25.55254,R,ugm-3,38.18238,R,ugm-3,77.36239,R,ugm-3,3.22641,R,ugm-3
07-01-2021,15:00,16.425,R,ugm-3 (Ref.eq),28.92804,R,ugm-3,43.43873,R,ugm-3,87.79444,R,ugm-3,3.47946,R,ugm-3
07-01-2021,16:00,19.324,R,ugm-3 (Ref.eq),40.20221,R,ugm-3,48.77189,R,ugm-3,110.41441,R,ugm-3,3.54273,R,ugm-3
07-01-2021,17:00,27.054,R,ugm-3 (Ref.eq),44.89415,R,ugm-3,50.56369,R,ugm-3,119.40043,R,ugm-3,3.85904,R,ugm-3
07-01-2021,18:00,35.749,R,ugm-3 (Ref.eq),71.45934,R,ugm-3,53.05682,R,ugm-3,162.62628,R,ugm-3,5.18756,R,ugm-3
07-01-2021,19:00,34.783,R,ugm-3 (Ref.eq),47.59455,R,ugm-3,54.63450,R,ugm-3,127.61179,R,ugm-3,5.56714,R,ugm-3
07-01-2021,20:00,29.952,R,ugm-3 (Ref.eq),33.68749,R,ugm-3,52.09893,R,ugm-3,103.75236,R,ugm-3,4.42841,R,ugm-3
07-01-2021,21:00,35.749,R,ugm-3 (Ref.eq),29.19808,R,ugm-3,50.71960,R,ugm-3,95.48936,R,ugm-3,5.56714,R,ugm-3
07-01-2021,22:00,31.885,R,ugm-3 (Ref.eq),30.91958,R,ugm-3,49.78424,R,ugm-3,97.19360,R,ugm-3,8.28745,R,ugm-3
07-01-2021,23:00,30.918,R,ugm-3 (Ref.eq),34.93643,R,ugm-3,49.46091,R,ugm-3,103.02935,R,ugm-3,12.08322,R,ugm-3
07-01-2021,24:00,28.020,R,ugm-3 (Ref.eq),35.34149,R,ugm-3,46.98065,R,ugm-3,101.17018,R,ugm-3,9.17313,R,ugm-3
08-01-2021,01:00,28.020,R,ugm-3 (Ref.eq),29.31747,R,ugm-3,45.43694,R,ugm-3,90.38977,R,ugm-3,8.42904,R,ugm-3
08-01-2021,02:00,23.189,R,ugm-3 (Ref.eq),16.86204,R,ugm-3,43.34774,R,ugm-3,69.20252,R,ugm-3,6.32178,R,ugm-3
08-01-2021,03:00,17.392,R,ugm-3 (Ref.eq),9.07178,R,ugm-3,41.55189,R,ugm-3,55.46176,R,ugm-3,4.61490,R,ugm-3
08-01-2021,04:00,21.256,R,ugm-3 (Ref.eq),8.19495,R,ugm-3,35.93137,R,ugm-3,48.49679,R,ugm-3,3.54020,R,ugm-3
08-01-2021,05:00,16.425,R,ugm-3 (Ref.eq),2.12462,R,ugm-3,23.31235,R,ugm-3,26.57005,R,ugm-3,2.46549,R,ugm-3
08-01-2021,06:00,6.763,R,ugm-3 (Ref.eq),2.56303,R,ugm-3,19.33822,R,ugm-3,23.26814,R,ugm-3,1.77010,R,ugm-3
08-01-2021,07:00,4.831,R,ugm-3 (Ref.eq),1.85483,R,ugm-3,20.06297,R,ugm-3,22.90700,R,ugm-3,1.39079,R,ugm-3
08-01-2021,08:00,8.696,R,ugm-3 (Ref.eq),3.33868,R,ugm-3,29.96354,R,ugm-3,35.08279,R,ugm-3,1.45401,R,ugm-3
08-01-2021,09:00,6.763,R,ugm-3 (Ref.eq),11.09522,R,ugm-3,43.55696,R,ugm-3,60.56940,R,ugm-3,1.51723,R,ugm-3
08-01-2021,10:00,8.696,R,ugm-3 (Ref.eq),8.26240,R,ugm-3,38.66553,R,ugm-3,51.33437,R,ugm-3,1.26436,R,ugm-3
08-01-2021,11:00,15.459,R,ugm-3 (Ref.eq),9.20668,R,ugm-3,37.01130,R,ugm-3,51.12800,R,ugm-3,1.39079,R,ugm-3
08-01-2021,12:00,17.392,R,ugm-3 (Ref.eq),9.51019,R,ugm-3,33.19241,R,ugm-3,47.77450,R,ugm-3,1.64366,R,ugm-3
08-01-2021,13:00,12.561,R,ugm-3 (Ref.eq),9.00433,R,ugm-3,31.85277,R,ugm-3,45.65921,R,ugm-3,1.45401,R,ugm-3
08-01-2021,14:00,14.493,R,ugm-3 (Ref.eq),8.70081,R,ugm-3,35.36210,R,ugm-3,48.70316,R,ugm-3,1.70688,R,ugm-3
08-01-2021,15:00,3.865,R,ugm-3 (Ref.eq),4.28296,R,ugm-3,27.69020,R,ugm-3,34.25731,R,ugm-3,1.32757,R,ugm-3
08-01-2021,16:00,11.594,R,ugm-3 (Ref.eq),4.55275,R,ugm-3,34.18989,R,ugm-3,41.17068,R,ugm-3,1.13792,R,ugm-3
08-01-2021,17:00,9.662,R,ugm-3 (Ref.eq),1.07917,R,ugm-3,19.29178,R,ugm-3,20.94649,R,ugm-3,0.69540,R,ugm-3
08-01-2021,18:00,8.696,R,ugm-3 (Ref.eq),2.09089,R,ugm-3,30.38062,R,ugm-3,33.58661,R,ugm-3,0.63218,R,ugm-3
08-01-2021,19:00,9.662,R,ugm-3 (Ref.eq),1.07917,R,ugm-3,19.34338,R,ugm-3,20.99808,R,ugm-3,0.31609,R,ugm-3
08-01-2021,20:00,8.696,R,ugm-3 (Ref.eq),3.03517,R,ugm-3,21.65823,R,ugm-3,26.31209,R,ugm-3,0.44252,R,ugm-3
08-01-2021,21:00,8.696,R,ugm-3 (Ref.eq),0.70821,R,ugm-3,24.55549,R,ugm-3,25.64139,R,ugm-3,0.44252,R,ugm-3
08-01-2021,22:00,6.763,R,ugm-3 (Ref.eq),1.85483,R,ugm-3,24.60310,R,ugm-3,27.44712,R,ugm-3,0.56896,R,ugm-3
08-01-2021,23:00,6.763,R,ugm-3 (Ref.eq),0.64076,R,ugm-3,18.00350,R,ugm-3,18.98598,R,ugm-3,0.50574,R,ugm-3
08-01-2021,24:00,6.763,R,ugm-3 (Ref.eq),1.28152,R,ugm-3,17.38216,R,ugm-3,19.34713,R,ugm-3,0.37931,R,ugm-3
09-01-2021,01:00,15.459,R,ugm-3 (Ref.eq),0.13477,R,ugm-3,14.70585,R,ugm-3,14.91250,R,ugm-3,-0.16846,R,ugm-3
09-01-2021,02:00,20.290,R,ugm-3 (Ref.eq),0.44924,R,ugm-3,21.02706,R,ugm-3,21.71589,R,ugm-3,0.16846,R,ugm-3
09-01-2021,03:00,17.392,R,ugm-3 (Ref.eq),0.37063,R,ugm-3,18.75955,R,ugm-3,19.32783,R,ugm-3,0.06317,R,ugm-3
09-01-2021,04:00,20.290,R,ugm-3 (Ref.eq),0.26955,R,ugm-3,17.26523,R,ugm-3,17.67852,R,ugm-3,0.00000,R,ugm-3
09-01-2021,05:00,15.459,R,ugm-3 (Ref.eq),0.26955,R,ugm-3,16.13133,R,ugm-3,16.54462,R,ugm-3,0.06317,R,ugm-3
09-01-2021,06:00,19.324,R,ugm-3 (Ref.eq),4.61596,R,ugm-3,27.30005,R,ugm-3,34.37777,R,ugm-3,0.37904,R,ugm-3
09-01-2021,07:00,14.493,R,ugm-3 (Ref.eq),1.14557,R,ugm-3,23.70468,R,ugm-3,25.46120,R,ugm-3,0.25269,R,ugm-3
09-01-2021,08:00,14.493,R,ugm-3 (Ref.eq),1.71835,R,ugm-3,25.91888,R,ugm-3,28.55365,R,ugm-3,0.18952,R,ugm-3
09-01-2021,09:00,15.459,R,ugm-3 (Ref.eq),13.27511,R,ugm-3,52.11159,R,ugm-3,72.46648,R,ugm-3,0.50538,R,ugm-3
09-01-2021,10:00,14.493,R,ugm-3 (Ref.eq),13.81420,R,ugm-3,47.05865,R,ugm-3,68.24013,R,ugm-3,0.88442,R,ugm-3
09-01-2021,11:00,8.696,R,ugm-3 (Ref.eq),9.13085,R,ugm-3,34.80877,R,ugm-3,48.80921,R,ugm-3,1.07394,R,ugm-3
09-01-2021,12:00,13.527,R,ugm-3 (Ref.eq),6.90710,R,ugm-3,26.67332,R,ugm-3,37.26406,R,ugm-3,1.20028,R,ugm-3
09-01-2021,13:00,19.324,R,ugm-3 (Ref.eq),8.45699,R,ugm-3,28.26551,R,ugm-3,41.23270,R,ugm-3,1.51614,R,ugm-3
09-01-2021,14:00,23.189,R,ugm-3 (Ref.eq),7.78312,R,ugm-3,27.85561,R,ugm-3,39.78956,R,ugm-3,2.90594,R,ugm-3
09-01-2021,15:00,19.324,R,ugm-3 (Ref.eq),5.76153,R,ugm-3,28.48137,R,ugm-3,37.31560,R,ugm-3,2.77960,R,ugm-3
09-01-2021,16:00,28.020,R,ugm-3 (Ref.eq),5.32352,R,ugm-3,33.63704,R,ugm-3,41.79965,R,ugm-3,1.76884,R,ugm-3
09-01-2021,17:00,32.851,R,ugm-3 (Ref.eq),8.42329,R,ugm-3,45.06796,R,ugm-3,57.98349,R,ugm-3,5.11699,R,ugm-3
09-01-2021,18:00,34.783,R,ugm-3 (Ref.eq),7.37881,R,ugm-3,47.44259,R,ugm-3,58.75660,R,ugm-3,5.30650,R,ugm-3
09-01-2021,19:00,25.121,R,ugm-3 (Ref.eq),3.63886,R,ugm-3,32.30304,R,ugm-3,37.88255,R,ugm-3,4.23257,R,ugm-3
09-01-2021,20:00,21.256,R,ugm-3 (Ref.eq),1.44881,R,ugm-3,20.45652,R,ugm-3,22.67799,R,ugm-3,3.09546,R,ugm-3
09-01-2021,21:00,25.121,R,ugm-3 (Ref.eq),1.44881,R,ugm-3,18.65258,R,ugm-3,20.87406,R,ugm-3,2.71643,R,ugm-3
09-01-2021,22:00,29.952,R,ugm-3 (Ref.eq),1.44881,R,ugm-3,22.10582,R,ugm-3,24.32730,R,ugm-3,2.65325,R,ugm-3
09-01-2021,23:00,25.121,R,ugm-3 (Ref.eq),0.94341,R,ugm-3,18.13900,R,ugm-3,19.58553,R,ugm-3,2.59008,R,ugm-3
09-01-2021,24:00,19.324,R,ugm-3 (Ref.eq),0.64017,R,ugm-3,15.09917,R,ugm-3,16.08076,R,ugm-3,2.27422,R,ugm-3
10-01-2021,01:00,21.256,R,ugm-3 (Ref.eq),0.53860,R,ugm-3,14.55234,R,ugm-3,15.37818,R,ugm-3,0.67336,R,ugm-3
10-01-2021,02:00,17.392,R,ugm-3 (Ref.eq),0.26930,R,ugm-3,14.21008,R,ugm-3,14.62300,R,ugm-3,1.09421,R,ugm-3
10-01-2021,03:00,15.459,R,ugm-3 (Ref.eq),0.63958,R,ugm-3,15.70190,R,ugm-3,16.68258,R,ugm-3,0.88379,R,ugm-3
10-01-2021,04:00,14.493,R,ugm-3 (Ref.eq),0.40395,R,ugm-3,14.26107,R,ugm-3,14.88045,R,ugm-3,1.01004,R,ugm-3
10-01-2021,05:00,12.561,R,ugm-3 (Ref.eq),0.60592,R,ugm-3,13.17904,R,ugm-3,14.10810,R,ugm-3,1.19942,R,ugm-3
10-01-2021,06:00,7.730,R,ugm-3 (Ref.eq),1.95241,R,ugm-3,14.46126,R,ugm-3,17.45492,R,ugm-3,1.01004,R,ugm-3
10-01-2021,07:00,10.628,R,ugm-3 (Ref.eq),1.68311,R,ugm-3,14.10184,R,ugm-3,16.68258,R,ugm-3,0.50502,R,ugm-3